Zurück zum Katalog

METEOR 2-11 DEB

AktivPO
NORAD 42454·DEBRIS·🇷🇺 Russia

Gestartet Jul 5, 1984 von Plesetsk Cosmodrome

Loading…

Nächste Überflüge (nächste 24 Stunden)

TLE

AlterndSource: Space-Track

Epoche: Sep 3, 2026, 21:23 UTC

1 42454U 84072Q   26246.89165108  .00001393  00000-0  95294-3 0  9996
2 42454  82.5107 298.2084 0020046 105.6041 254.7341 13.98960599573679

Verfolge METEOR 2-11 DEB in Echtzeit mit AllMySat

Download on the App Store